owner,sensor,date,latitude,longitude,air_pressure(mBar),qcFlag 
COMPS,ioos:station:USF.COMPS:BGC:1,2011-04-01T00:00:00Z,26.4040,-81.8810,1008.0,1111122 
COMPS,ioos:station:USF.COMPS:BGC:1,2011-04-01T00:06:00Z,26.4040,-81.8810,1008.1,1111122 
COMPS,ioos:station:USF.COMPS:BGC:1,2011-04-01T00:12:00Z,26.4040,-81.8810,1008.18,1111122 
COMPS,ioos:station:USF.COMPS:BGC:1,2011-04-01T00:18:00Z,26.4040,-81.8810,1008.1,1111122 
COMPS,ioos:station:USF.COMPS:BGC:1,2011-04-01T00:24:00Z,26.4040,-81.8810,1007.96,1111122 
COMPS,ioos:station:USF.COMPS:BGC:1,2011-04-01T00:30:00Z,26.4040,-81.8810,1007.98,1111122 
COMPS,ioos:station:USF.COMPS:BGC:1,2011-04-01T00:36:00Z,26.4040,-81.8810,1008.02,1111122 
COMPS,ioos:station:USF.COMPS:BGC:1,2011-04-01T00:42:00Z,26.4040,-81.8810,1007.88,1111122 
COMPS,ioos:station:USF.COMPS:BGC:1,2011-04-01T00:48:00Z,26.4040,-81.8810,1007.8,1111122 
COMPS,ioos:station:USF.COMPS:BGC:1,2011-04-01T00:54:00Z,26.4040,-81.8810,1007.77,1111122 
COMPS,ioos:station:USF.COMPS:BGC:1,2011-04-01T03:00:00Z,26.4040,-81.8810,1009.81,1111122 
COMPS,ioos:station:USF.COMPS:BGC:1,2011-04-01T03:06:00Z,26.4040,-81.8810,1010.09,1111122 
COMPS,ioos:station:USF.COMPS:BGC:1,2011-04-01T03:12:00Z,26.4040,-81.8810,1010.12,1111122 
COMPS,ioos:station:USF.COMPS:BGC:1,2011-04-01T03:18:00Z,26.4040,-81.8810,1009.42,1111122 
COMPS,ioos:station:USF.COMPS:BGC:1,2011-04-01T03:24:00Z,26.4040,-81.8810,1008.68,1111122 
COMPS,ioos:station:USF.COMPS:BGC:1,2011-04-01T03:30:00Z,26.4040,-81.8810,1008.72,1111122 
COMPS,ioos:station:USF.COMPS:BGC:1,2011-04-01T03:36:00Z,26.4040,-81.8810,1009.62,1111122 
COMPS,ioos:station:USF.COMPS:BGC:1,2011-04-01T03:42:00Z,26.4040,-81.8810,1009.89,1111122 
COMPS,ioos:station:USF.COMPS:BGC:1,2011-04-01T03:48:00Z,26.4040,-81.8810,1009.49,1111122 
COMPS,ioos:station:USF.COMPS:BGC:1,2011-04-01T03:54:00Z,26.4040,-81.8810,1009.25,1111122 
COMPS,ioos:station:USF.COMPS:BGC:1,2011-04-01T05:00:00Z,26.4040,-81.8810,1009.49,1111122 
COMPS,ioos:station:USF.COMPS:BGC:1,2011-04-01T05:06:00Z,26.4040,-81.8810,1009.5,1111122 
COMPS,ioos:station:USF.COMPS:BGC:1,2011-04-01T05:12:00Z,26.4040,-81.8810,1009.24,1111122 
COMPS,ioos:station:USF.COMPS:BGC:1,2011-04-01T05:18:00Z,26.4040,-81.8810,1009.37,1111122 
COMPS,ioos:station:USF.COMPS:BGC:1,2011-04-01T05:24:00Z,26.4040,-81.8810,1009.12,1111122 
COMPS,ioos:station:USF.COMPS:BGC:1,2011-04-01T05:30:00Z,26.4040,-81.8810,1009.2,1111122 
COMPS,ioos:station:USF.COMPS:BGC:1,2011-04-01T05:36:00Z,26.4040,-81.8810,1008.93,1111122 
COMPS,ioos:station:USF.COMPS:BGC:1,2011-04-01T05:42:00Z,26.4040,-81.8810,1009.0,1111122 
COMPS,ioos:station:USF.COMPS:BGC:1,2011-04-01T05:48:00Z,26.4040,-81.8810,1008.88,1111122 
COMPS,ioos:station:USF.COMPS:BGC:1,2011-04-01T05:54:00Z,26.4040,-81.8810,1008.88,1111122 
COMPS,ioos:station:USF.COMPS:BGC:1,2011-04-01T08:00:00Z,26.4040,-81.8810,1008.13,1111122 
COMPS,ioos:station:USF.COMPS:BGC:1,2011-04-01T08:06:00Z,26.4040,-81.8810,1008.06,1111122 
COMPS,ioos:station:USF.COMPS:BGC:1,2011-04-01T08:12:00Z,26.4040,-81.8810,1008.3,1111122 
COMPS,ioos:station:USF.COMPS:BGC:1,2011-04-01T08:18:00Z,26.4040,-81.8810,1008.32,1111122 
COMPS,ioos:station:USF.COMPS:BGC:1,2011-04-01T08:24:00Z,26.4040,-81.8810,1008.34,1111122 
COMPS,ioos:station:USF.COMPS:BGC:1,2011-04-01T08:30:00Z,26.4040,-81.8810,1008.46,1111122 
COMPS,ioos:station:USF.COMPS:BGC:1,2011-04-01T08:36:00Z,26.4040,-81.8810,1008.56,1111122 
COMPS,ioos:station:USF.COMPS:BGC:1,2011-04-01T08:42:00Z,26.4040,-81.8810,1008.58,1111122 
COMPS,ioos:station:USF.COMPS:BGC:1,2011-04-01T08:48:00Z,26.4040,-81.8810,1008.44,1111122 
COMPS,ioos:station:USF.COMPS:BGC:1,2011-04-01T08:54:00Z,26.4040,-81.8810,1008.41,1111122 
COMPS,ioos:station:USF.COMPS:BGC:1,2011-04-01T11:00:00Z,26.4040,-81.8810,1009.85,1111122 
COMPS,ioos:station:USF.COMPS:BGC:1,2011-04-01T11:06:00Z,26.4040,-81.8810,1010.08,1111122 
COMPS,ioos:station:USF.COMPS:BGC:1,2011-04-01T11:12:00Z,26.4040,-81.8810,1010.08,1111122 
COMPS,ioos:station:USF.COMPS:BGC:1,2011-04-01T11:18:00Z,26.4040,-81.8810,1010.01,1111122 
COMPS,ioos:station:USF.COMPS:BGC:1,2011-04-01T11:24:00Z,26.4040,-81.8810,1010.08,1111122 
COMPS,ioos:station:USF.COMPS:BGC:1,2011-04-01T11:30:00Z,26.4040,-81.8810,1010.21,1111122 
COMPS,ioos:station:USF.COMPS:BGC:1,2011-04-01T11:36:00Z,26.4040,-81.8810,1010.38,1111122 
COMPS,ioos:station:USF.COMPS:BGC:1,2011-04-01T11:42:00Z,26.4040,-81.8810,1010.48,1111122 
COMPS,ioos:station:USF.COMPS:BGC:1,2011-04-01T11:48:00Z,26.4040,-81.8810,1010.57,1111122 
COMPS,ioos:station:USF.COMPS:BGC:1,2011-04-01T11:54:00Z,26.4040,-81.8810,1010.62,1111122 
COMPS,ioos:station:USF.COMPS:BGC:1,2011-04-01T12:00:00Z,26.4040,-81.8810,1010.74,1111122 
COMPS,ioos:station:USF.COMPS:BGC:1,2011-04-01T12:06:00Z,26.4040,-81.8810,1010.96,1111122 
COMPS,ioos:station:USF.COMPS:BGC:1,2011-04-01T12:12:00Z,26.4040,-81.8810,1011.06,1111122 
COMPS,ioos:station:USF.COMPS:BGC:1,2011-04-01T12:18:00Z,26.4040,-81.8810,1011.13,1111122 
COMPS,ioos:station:USF.COMPS:BGC:1,2011-04-01T12:24:00Z,26.4040,-81.8810,1011.29,1111122 
COMPS,ioos:station:USF.COMPS:BGC:1,2011-04-01T12:30:00Z,26.4040,-81.8810,1011.32,1111122 
COMPS,ioos:station:USF.COMPS:BGC:1,2011-04-01T12:36:00Z,26.4040,-81.8810,1011.26,1111122 
COMPS,ioos:station:USF.COMPS:BGC:1,2011-04-01T12:42:00Z,26.4040,-81.8810,1011.34,1111122 
COMPS,ioos:station:USF.COMPS:BGC:1,2011-04-01T12:48:00Z,26.4040,-81.8810,1011.41,1111122 
COMPS,ioos:station:USF.COMPS:BGC:1,2011-04-01T12:54:00Z,26.4040,-81.8810,1011.48,1111122 
COMPS,ioos:station:USF.COMPS:BGC:1,2011-04-01T15:00:00Z,26.4040,-81.8810,1012.96,1111122 
COMPS,ioos:station:USF.COMPS:BGC:1,2011-04-01T15:06:00Z,26.4040,-81.8810,1013.0,1111122 
COMPS,ioos:station:USF.COMPS:BGC:1,2011-04-01T15:12:00Z,26.4040,-81.8810,1012.96,1111122 
COMPS,ioos:station:USF.COMPS:BGC:1,2011-04-01T15:18:00Z,26.4040,-81.8810,1013.02,1111122 
COMPS,ioos:station:USF.COMPS:BGC:1,2011-04-01T15:24:00Z,26.4040,-81.8810,1013.0,1111122 
COMPS,ioos:station:USF.COMPS:BGC:1,2011-04-01T15:30:00Z,26.4040,-81.8810,1013.1,1111122 
COMPS,ioos:station:USF.COMPS:BGC:1,2011-04-01T15:36:00Z,26.4040,-81.8810,1013.05,1111122 
COMPS,ioos:station:USF.COMPS:BGC:1,2011-04-01T15:42:00Z,26.4040,-81.8810,1013.05,1111122 
COMPS,ioos:station:USF.COMPS:BGC:1,2011-04-01T15:48:00Z,26.4040,-81.8810,1013.14,1111122 
COMPS,ioos:station:USF.COMPS:BGC:1,2011-04-01T15:54:00Z,26.4040,-81.8810,1013.14,1111122 
COMPS,ioos:station:USF.COMPS:BGC:1,2011-04-01T16:00:00Z,26.4040,-81.8810,1013.16,1111122 
COMPS,ioos:station:USF.COMPS:BGC:1,2011-04-01T16:06:00Z,26.4040,-81.8810,1013.1,1111122 
COMPS,ioos:station:USF.COMPS:BGC:1,2011-04-01T16:12:00Z,26.4040,-81.8810,1013.1,1111122 
COMPS,ioos:station:USF.COMPS:BGC:1,2011-04-01T16:18:00Z,26.4040,-81.8810,1013.08,1111122 
COMPS,ioos:station:USF.COMPS:BGC:1,2011-04-01T16:24:00Z,26.4040,-81.8810,1013.14,1111122 
COMPS,ioos:station:USF.COMPS:BGC:1,2011-04-01T16:30:00Z,26.4040,-81.8810,1013.14,1111122 
COMPS,ioos:station:USF.COMPS:BGC:1,2011-04-01T16:36:00Z,26.4040,-81.8810,1013.0,1111122 
COMPS,ioos:station:USF.COMPS:BGC:1,2011-04-01T16:42:00Z,26.4040,-81.8810,1012.88,1111122 
COMPS,ioos:station:USF.COMPS:BGC:1,2011-04-01T16:48:00Z,26.4040,-81.8810,1013.02,1111122 
COMPS,ioos:station:USF.COMPS:BGC:1,2011-04-01T16:54:00Z,26.4040,-81.8810,1013.01,1111122 
COMPS,ioos:station:USF.COMPS:BGC:1,2011-04-01T21:00:00Z,26.4040,-81.8810,1011.98,1111122 
COMPS,ioos:station:USF.COMPS:BGC:1,2011-04-01T21:06:00Z,26.4040,-81.8810,1012.0,1111122 
COMPS,ioos:station:USF.COMPS:BGC:1,2011-04-01T21:12:00Z,26.4040,-81.8810,1012.01,1111122 
COMPS,ioos:station:USF.COMPS:BGC:1,2011-04-01T21:18:00Z,26.4040,-81.8810,1012.04,1111122 
COMPS,ioos:station:USF.COMPS:BGC:1,2011-04-01T21:24:00Z,26.4040,-81.8810,1012.01,1111122 
COMPS,ioos:station:USF.COMPS:BGC:1,2011-04-01T21:30:00Z,26.4040,-81.8810,1012.0,1111122 
COMPS,ioos:station:USF.COMPS:BGC:1,2011-04-01T21:36:00Z,26.4040,-81.8810,1012.02,1111122 
COMPS,ioos:station:USF.COMPS:BGC:1,2011-04-01T21:42:00Z,26.4040,-81.8810,1012.02,1111122 
COMPS,ioos:station:USF.COMPS:BGC:1,2011-04-01T21:48:00Z,26.4040,-81.8810,1012.02,1111122 
COMPS,ioos:station:USF.COMPS:BGC:1,2011-04-01T21:54:00Z,26.4040,-81.8810,1012.02,1111122 
COMPS,ioos:station:USF.COMPS:BGC:1,2011-04-02T00:00:00Z,26.4040,-81.8810,1013.4,1111122 
COMPS,ioos:station:USF.COMPS:BGC:1,2011-04-02T00:06:00Z,26.4040,-81.8810,1013.41,1111122 
COMPS,ioos:station:USF.COMPS:BGC:1,2011-04-02T00:12:00Z,26.4040,-81.8810,1013.41,1111122 
COMPS,ioos:station:USF.COMPS:BGC:1,2011-04-02T00:18:00Z,26.4040,-81.8810,1013.53,1111122 
COMPS,ioos:station:USF.COMPS:BGC:1,2011-04-02T00:24:00Z,26.4040,-81.8810,1013.49,1111122 
COMPS,ioos:station:USF.COMPS:BGC:1,2011-04-02T00:30:00Z,26.4040,-81.8810,1013.54,1111122 
COMPS,ioos:station:USF.COMPS:BGC:1,2011-04-02T00:36:00Z,26.4040,-81.8810,1013.73,1111122 
COMPS,ioos:station:USF.COMPS:BGC:1,2011-04-02T00:42:00Z,26.4040,-81.8810,1013.82,1111122 
COMPS,ioos:station:USF.COMPS:BGC:1,2011-04-02T00:48:00Z,26.4040,-81.8810,1013.86,1111122 
COMPS,ioos:station:USF.COMPS:BGC:1,2011-04-02T00:54:00Z,26.4040,-81.8810,1013.88,1111122 
COMPS,ioos:station:USF.COMPS:BGC:1,2011-04-02T03:00:00Z,26.4040,-81.8810,1015.66,1111122 
COMPS,ioos:station:USF.COMPS:BGC:1,2011-04-02T03:06:00Z,26.4040,-81.8810,1015.68,1111122 
COMPS,ioos:station:USF.COMPS:BGC:1,2011-04-02T03:12:00Z,26.4040,-81.8810,1015.68,1111122 
COMPS,ioos:station:USF.COMPS:BGC:1,2011-04-02T03:18:00Z,26.4040,-81.8810,1015.66,1111122 
COMPS,ioos:station:USF.COMPS:BGC:1,2011-04-02T03:24:00Z,26.4040,-81.8810,1015.66,1111122 
COMPS,ioos:station:USF.COMPS:BGC:1,2011-04-02T03:30:00Z,26.4040,-81.8810,1015.66,1111122 
COMPS,ioos:station:USF.COMPS:BGC:1,2011-04-02T03:36:00Z,26.4040,-81.8810,1015.62,1111122 
COMPS,ioos:station:USF.COMPS:BGC:1,2011-04-02T03:42:00Z,26.4040,-81.8810,1015.58,1111122 
COMPS,ioos:station:USF.COMPS:BGC:1,2011-04-02T03:48:00Z,26.4040,-81.8810,1015.57,1111122 
COMPS,ioos:station:USF.COMPS:BGC:1,2011-04-02T03:54:00Z,26.4040,-81.8810,1015.58,1111122 
COMPS,ioos:station:USF.COMPS:BGC:1,2011-04-02T06:00:00Z,26.4040,-81.8810,1015.34,1111122 
COMPS,ioos:station:USF.COMPS:BGC:1,2011-04-02T06:06:00Z,26.4040,-81.8810,1015.37,1111122 
COMPS,ioos:station:USF.COMPS:BGC:1,2011-04-02T06:12:00Z,26.4040,-81.8810,1015.32,1111122 
COMPS,ioos:station:USF.COMPS:BGC:1,2011-04-02T06:18:00Z,26.4040,-81.8810,1015.25,1111122 
COMPS,ioos:station:USF.COMPS:BGC:1,2011-04-02T06:24:00Z,26.4040,-81.8810,1015.26,1111122 
COMPS,ioos:station:USF.COMPS:BGC:1,2011-04-02T06:30:00Z,26.4040,-81.8810,1015.26,1111122 
COMPS,ioos:station:USF.COMPS:BGC:1,2011-04-02T06:36:00Z,26.4040,-81.8810,1015.28,1111122 
COMPS,ioos:station:USF.COMPS:BGC:1,2011-04-02T06:42:00Z,26.4040,-81.8810,1015.13,1111122 
COMPS,ioos:station:USF.COMPS:BGC:1,2011-04-02T06:48:00Z,26.4040,-81.8810,1015.01,1111122 
COMPS,ioos:station:USF.COMPS:BGC:1,2011-04-02T06:54:00Z,26.4040,-81.8810,1014.97,1111122 
COMPS,ioos:station:USF.COMPS:BGC:1,2011-04-02T09:00:00Z,26.4040,-81.8810,1014.18,1111122 
COMPS,ioos:station:USF.COMPS:BGC:1,2011-04-02T09:06:00Z,26.4040,-81.8810,1014.29,1111122 
COMPS,ioos:station:USF.COMPS:BGC:1,2011-04-02T09:12:00Z,26.4040,-81.8810,1014.32,1111122 
COMPS,ioos:station:USF.COMPS:BGC:1,2011-04-02T09:18:00Z,26.4040,-81.8810,1014.37,1111122 
COMPS,ioos:station:USF.COMPS:BGC:1,2011-04-02T09:24:00Z,26.4040,-81.8810,1014.44,1111122 
COMPS,ioos:station:USF.COMPS:BGC:1,2011-04-02T09:30:00Z,26.4040,-81.8810,1014.46,1111122 
COMPS,ioos:station:USF.COMPS:BGC:1,2011-04-02T09:36:00Z,26.4040,-81.8810,1014.53,1111122 
COMPS,ioos:station:USF.COMPS:BGC:1,2011-04-02T09:42:00Z,26.4040,-81.8810,1014.56,1111122 
COMPS,ioos:station:USF.COMPS:BGC:1,2011-04-02T09:48:00Z,26.4040,-81.8810,1014.48,1111122 
COMPS,ioos:station:USF.COMPS:BGC:1,2011-04-02T09:54:00Z,26.4040,-81.8810,1014.64,1111122 
COMPS,ioos:station:USF.COMPS:BGC:1,2011-04-02T12:00:00Z,26.4040,-81.8810,1015.9,1111122 
COMPS,ioos:station:USF.COMPS:BGC:1,2011-04-02T12:06:00Z,26.4040,-81.8810,1015.98,1111122 
COMPS,ioos:station:USF.COMPS:BGC:1,2011-04-02T12:12:00Z,26.4040,-81.8810,1016.18,1111122 
COMPS,ioos:station:USF.COMPS:BGC:1,2011-04-02T12:18:00Z,26.4040,-81.8810,1016.28,1111122 
COMPS,ioos:station:USF.COMPS:BGC:1,2011-04-02T12:24:00Z,26.4040,-81.8810,1016.32,1111122 
COMPS,ioos:station:USF.COMPS:BGC:1,2011-04-02T12:30:00Z,26.4040,-81.8810,1016.6,1111122 
COMPS,ioos:station:USF.COMPS:BGC:1,2011-04-02T12:36:00Z,26.4040,-81.8810,1016.66,1111122 
COMPS,ioos:station:USF.COMPS:BGC:1,2011-04-02T12:42:00Z,26.4040,-81.8810,1016.66,1111122 
COMPS,ioos:station:USF.COMPS:BGC:1,2011-04-02T12:48:00Z,26.4040,-81.8810,1016.73,1111122 
COMPS,ioos:station:USF.COMPS:BGC:1,2011-04-02T12:54:00Z,26.4040,-81.8810,1016.81,1111122 
COMPS,ioos:station:USF.COMPS:BGC:1,2011-04-02T17:00:00Z,26.4040,-81.8810,1017.54,1111122 
COMPS,ioos:station:USF.COMPS:BGC:1,2011-04-02T17:06:00Z,26.4040,-81.8810,1017.57,1111122 
COMPS,ioos:station:USF.COMPS:BGC:1,2011-04-02T17:12:00Z,26.4040,-81.8810,1017.62,1111122 
COMPS,ioos:station:USF.COMPS:BGC:1,2011-04-02T17:18:00Z,26.4040,-81.8810,1017.6,1111122 
COMPS,ioos:station:USF.COMPS:BGC:1,2011-04-02T17:24:00Z,26.4040,-81.8810,1017.46,1111122 
COMPS,ioos:station:USF.COMPS:BGC:1,2011-04-02T17:30:00Z,26.4040,-81.8810,1017.32,1111122 
COMPS,ioos:station:USF.COMPS:BGC:1,2011-04-02T17:36:00Z,26.4040,-81.8810,1017.24,1111122 
COMPS,ioos:station:USF.COMPS:BGC:1,2011-04-02T17:42:00Z,26.4040,-81.8810,1017.24,1111122 
COMPS,ioos:station:USF.COMPS:BGC:1,2011-04-02T17:48:00Z,26.4040,-81.8810,1017.16,1111122 
COMPS,ioos:station:USF.COMPS:BGC:1,2011-04-02T17:54:00Z,26.4040,-81.8810,1017.02,1111122 
COMPS,ioos:station:USF.COMPS:BGC:1,2011-04-02T20:00:00Z,26.4040,-81.8810,1015.69,1111122 
COMPS,ioos:station:USF.COMPS:BGC:1,2011-04-02T20:06:00Z,26.4040,-81.8810,1015.68,1111122 
COMPS,ioos:station:USF.COMPS:BGC:1,2011-04-02T20:12:00Z,26.4040,-81.8810,1015.62,1111122 
COMPS,ioos:station:USF.COMPS:BGC:1,2011-04-02T20:18:00Z,26.4040,-81.8810,1015.58,1111122 
COMPS,ioos:station:USF.COMPS:BGC:1,2011-04-02T20:24:00Z,26.4040,-81.8810,1015.56,1111122 
COMPS,ioos:station:USF.COMPS:BGC:1,2011-04-02T20:30:00Z,26.4040,-81.8810,1015.58,1111122 
COMPS,ioos:station:USF.COMPS:BGC:1,2011-04-02T20:36:00Z,26.4040,-81.8810,1015.69,1111122 
COMPS,ioos:station:USF.COMPS:BGC:1,2011-04-02T20:42:00Z,26.4040,-81.8810,1015.72,1111122 
COMPS,ioos:station:USF.COMPS:BGC:1,2011-04-02T20:48:00Z,26.4040,-81.8810,1015.7,1111122 
COMPS,ioos:station:USF.COMPS:BGC:1,2011-04-02T20:54:00Z,26.4040,-81.8810,1015.66,1111122 
COMPS,ioos:station:USF.COMPS:BGC:1,2011-04-02T23:00:00Z,26.4040,-81.8810,1016.04,1111122 
COMPS,ioos:station:USF.COMPS:BGC:1,2011-04-02T23:06:00Z,26.4040,-81.8810,1016.1,1111122 
COMPS,ioos:station:USF.COMPS:BGC:1,2011-04-02T23:12:00Z,26.4040,-81.8810,1016.12,1111122 
COMPS,ioos:station:USF.COMPS:BGC:1,2011-04-02T23:18:00Z,26.4040,-81.8810,1016.12,1111122 
COMPS,ioos:station:USF.COMPS:BGC:1,2011-04-02T23:24:00Z,26.4040,-81.8810,1016.21,1111122 
COMPS,ioos:station:USF.COMPS:BGC:1,2011-04-02T23:30:00Z,26.4040,-81.8810,1016.2,1111122 
COMPS,ioos:station:USF.COMPS:BGC:1,2011-04-02T23:36:00Z,26.4040,-81.8810,1016.29,1111122 
COMPS,ioos:station:USF.COMPS:BGC:1,2011-04-02T23:42:00Z,26.4040,-81.8810,1016.38,1111122 
COMPS,ioos:station:USF.COMPS:BGC:1,2011-04-02T23:48:00Z,26.4040,-81.8810,1016.5,1111122 
COMPS,ioos:station:USF.COMPS:BGC:1,2011-04-02T23:54:00Z,26.4040,-81.8810,1016.48,1111122 
COMPS,ioos:station:USF.COMPS:BGC:1,2011-04-03T02:00:00Z,26.4040,-81.8810,1017.64,1111122 
COMPS,ioos:station:USF.COMPS:BGC:1,2011-04-03T02:06:00Z,26.4040,-81.8810,1017.74,1111122 
COMPS,ioos:station:USF.COMPS:BGC:1,2011-04-03T02:12:00Z,26.4040,-81.8810,1017.77,1111122 
COMPS,ioos:station:USF.COMPS:BGC:1,2011-04-03T02:18:00Z,26.4040,-81.8810,1017.86,1111122 
COMPS,ioos:station:USF.COMPS:BGC:1,2011-04-03T02:24:00Z,26.4040,-81.8810,1017.97,1111122 
COMPS,ioos:station:USF.COMPS:BGC:1,2011-04-03T02:30:00Z,26.4040,-81.8810,1018.0,1111122 
COMPS,ioos:station:USF.COMPS:BGC:1,2011-04-03T02:36:00Z,26.4040,-81.8810,1017.92,1111122 
COMPS,ioos:station:USF.COMPS:BGC:1,2011-04-03T02:42:00Z,26.4040,-81.8810,1017.93,1111122 
COMPS,ioos:station:USF.COMPS:BGC:1,2011-04-03T02:48:00Z,26.4040,-81.8810,1017.96,1111122 
COMPS,ioos:station:USF.COMPS:BGC:1,2011-04-03T02:54:00Z,26.4040,-81.8810,1017.96,1111122 
COMPS,ioos:station:USF.COMPS:BGC:1,2011-04-03T05:00:00Z,26.4040,-81.8810,1018.4,1111122 
COMPS,ioos:station:USF.COMPS:BGC:1,2011-04-03T05:06:00Z,26.4040,-81.8810,1018.34,1111122 
COMPS,ioos:station:USF.COMPS:BGC:1,2011-04-03T05:12:00Z,26.4040,-81.8810,1018.3,1111122 
COMPS,ioos:station:USF.COMPS:BGC:1,2011-04-03T05:18:00Z,26.4040,-81.8810,1018.29,1111122 
COMPS,ioos:station:USF.COMPS:BGC:1,2011-04-03T05:24:00Z,26.4040,-81.8810,1018.29,1111122 
COMPS,ioos:station:USF.COMPS:BGC:1,2011-04-03T05:30:00Z,26.4040,-81.8810,1018.28,1111122 
COMPS,ioos:station:USF.COMPS:BGC:1,2011-04-03T05:36:00Z,26.4040,-81.8810,1018.28,1111122 
COMPS,ioos:station:USF.COMPS:BGC:1,2011-04-03T05:42:00Z,26.4040,-81.8810,1018.2,1111122 
COMPS,ioos:station:USF.COMPS:BGC:1,2011-04-03T05:48:00Z,26.4040,-81.8810,1018.08,1111122 
COMPS,ioos:station:USF.COMPS:BGC:1,2011-04-03T05:54:00Z,26.4040,-81.8810,1018.06,1111122 
COMPS,ioos:station:USF.COMPS:BGC:1,2011-04-03T08:00:00Z,26.4040,-81.8810,1017.49,1111122 
COMPS,ioos:station:USF.COMPS:BGC:1,2011-04-03T08:06:00Z,26.4040,-81.8810,1017.5,1111122 
COMPS,ioos:station:USF.COMPS:BGC:1,2011-04-03T08:12:00Z,26.4040,-81.8810,1017.6,1111122 
COMPS,ioos:station:USF.COMPS:BGC:1,2011-04-03T08:18:00Z,26.4040,-81.8810,1017.61,1111122 
COMPS,ioos:station:USF.COMPS:BGC:1,2011-04-03T08:24:00Z,26.4040,-81.8810,1017.61,1111122 
COMPS,ioos:station:USF.COMPS:BGC:1,2011-04-03T08:30:00Z,26.4040,-81.8810,1017.61,1111122 
COMPS,ioos:station:USF.COMPS:BGC:1,2011-04-03T08:36:00Z,26.4040,-81.8810,1017.65,1111122 
COMPS,ioos:station:USF.COMPS:BGC:1,2011-04-03T08:42:00Z,26.4040,-81.8810,1017.7,1111122 
COMPS,ioos:station:USF.COMPS:BGC:1,2011-04-03T08:48:00Z,26.4040,-81.8810,1017.73,1111122 
COMPS,ioos:station:USF.COMPS:BGC:1,2011-04-03T08:54:00Z,26.4040,-81.8810,1017.76,1111122 
COMPS,ioos:station:USF.COMPS:BGC:1,2011-04-03T11:00:00Z,26.4040,-81.8810,1018.86,1111122 
COMPS,ioos:station:USF.COMPS:BGC:1,2011-04-03T11:06:00Z,26.4040,-81.8810,1018.93,1111122 
COMPS,ioos:station:USF.COMPS:BGC:1,2011-04-03T11:12:00Z,26.4040,-81.8810,1019.08,1111122 
COMPS,ioos:station:USF.COMPS:BGC:1,2011-04-03T11:18:00Z,26.4040,-81.8810,1019.13,1111122 
COMPS,ioos:station:USF.COMPS:BGC:1,2011-04-03T11:24:00Z,26.4040,-81.8810,1019.12,1111122 
COMPS,ioos:station:USF.COMPS:BGC:1,2011-04-03T11:30:00Z,26.4040,-81.8810,1019.18,1111122 
COMPS,ioos:station:USF.COMPS:BGC:1,2011-04-03T11:36:00Z,26.4040,-81.8810,1019.2,1111122 
COMPS,ioos:station:USF.COMPS:BGC:1,2011-04-03T11:42:00Z,26.4040,-81.8810,1019.22,1111122 
COMPS,ioos:station:USF.COMPS:BGC:1,2011-04-03T11:48:00Z,26.4040,-81.8810,1019.25,1111122 
COMPS,ioos:station:USF.COMPS:BGC:1,2011-04-03T11:54:00Z,26.4040,-81.8810,1019.33,1111122 
COMPS,ioos:station:USF.COMPS:BGC:1,2011-04-03T14:00:00Z,26.4040,-81.8810,1020.76,1111122 
COMPS,ioos:station:USF.COMPS:BGC:1,2011-04-03T14:06:00Z,26.4040,-81.8810,1020.82,1111122 
COMPS,ioos:station:USF.COMPS:BGC:1,2011-04-03T14:12:00Z,26.4040,-81.8810,1020.9,1111122 
COMPS,ioos:station:USF.COMPS:BGC:1,2011-04-03T14:18:00Z,26.4040,-81.8810,1020.93,1111122 
COMPS,ioos:station:USF.COMPS:BGC:1,2011-04-03T14:24:00Z,26.4040,-81.8810,1020.88,1111122 
COMPS,ioos:station:USF.COMPS:BGC:1,2011-04-03T14:30:00Z,26.4040,-81.8810,1020.92,1111122 
COMPS,ioos:station:USF.COMPS:BGC:1,2011-04-03T14:36:00Z,26.4040,-81.8810,1020.94,1111122 
COMPS,ioos:station:USF.COMPS:BGC:1,2011-04-03T14:42:00Z,26.4040,-81.8810,1020.94,1111122 
COMPS,ioos:station:USF.COMPS:BGC:1,2011-04-03T14:48:00Z,26.4040,-81.8810,1020.96,1111122 
COMPS,ioos:station:USF.COMPS:BGC:1,2011-04-03T14:54:00Z,26.4040,-81.8810,1020.96,1111122 
COMPS,ioos:station:USF.COMPS:BGC:1,2011-04-03T17:00:00Z,26.4040,-81.8810,1020.32,1111122 
COMPS,ioos:station:USF.COMPS:BGC:1,2011-04-03T17:06:00Z,26.4040,-81.8810,1020.17,1111122 
COMPS,ioos:station:USF.COMPS:BGC:1,2011-04-03T17:12:00Z,26.4040,-81.8810,1020.06,1111122 
COMPS,ioos:station:USF.COMPS:BGC:1,2011-04-03T17:18:00Z,26.4040,-81.8810,1020.02,1111122 
COMPS,ioos:station:USF.COMPS:BGC:1,2011-04-03T17:24:00Z,26.4040,-81.8810,1019.93,1111122 
COMPS,ioos:station:USF.COMPS:BGC:1,2011-04-03T17:30:00Z,26.4040,-81.8810,1019.8,1111122 
COMPS,ioos:station:USF.COMPS:BGC:1,2011-04-03T17:36:00Z,26.4040,-81.8810,1019.68,1111122 
COMPS,ioos:station:USF.COMPS:BGC:1,2011-04-03T17:42:00Z,26.4040,-81.8810,1019.62,1111122 
COMPS,ioos:station:USF.COMPS:BGC:1,2011-04-03T17:48:00Z,26.4040,-81.8810,1019.53,1111122 
COMPS,ioos:station:USF.COMPS:BGC:1,2011-04-03T17:54:00Z,26.4040,-81.8810,1019.45,1111122 
COMPS,ioos:station:USF.COMPS:BGC:1,2011-04-03T20:00:00Z,26.4040,-81.8810,1017.41,1111122 
COMPS,ioos:station:USF.COMPS:BGC:1,2011-04-03T20:06:00Z,26.4040,-81.8810,1017.42,1111122 
COMPS,ioos:station:USF.COMPS:BGC:1,2011-04-03T20:12:00Z,26.4040,-81.8810,1017.28,1111122 
COMPS,ioos:station:USF.COMPS:BGC:1,2011-04-03T20:18:00Z,26.4040,-81.8810,1017.22,1111122 
COMPS,ioos:station:USF.COMPS:BGC:1,2011-04-03T20:24:00Z,26.4040,-81.8810,1017.18,1111122 
COMPS,ioos:station:USF.COMPS:BGC:1,2011-04-03T20:30:00Z,26.4040,-81.8810,1017.17,1111122 
COMPS,ioos:station:USF.COMPS:BGC:1,2011-04-03T20:36:00Z,26.4040,-81.8810,1017.08,1111122 
COMPS,ioos:station:USF.COMPS:BGC:1,2011-04-03T20:42:00Z,26.4040,-81.8810,1017.04,1111122 
COMPS,ioos:station:USF.COMPS:BGC:1,2011-04-03T20:48:00Z,26.4040,-81.8810,1017.01,1111122 
COMPS,ioos:station:USF.COMPS:BGC:1,2011-04-03T20:54:00Z,26.4040,-81.8810,1016.93,1111122 
COMPS,ioos:station:USF.COMPS:BGC:1,2011-04-03T23:00:00Z,26.4040,-81.8810,1016.98,1111122 
COMPS,ioos:station:USF.COMPS:BGC:1,2011-04-03T23:06:00Z,26.4040,-81.8810,1017.0,1111122 
COMPS,ioos:station:USF.COMPS:BGC:1,2011-04-03T23:12:00Z,26.4040,-81.8810,1017.06,1111122 
COMPS,ioos:station:USF.COMPS:BGC:1,2011-04-03T23:18:00Z,26.4040,-81.8810,1017.09,1111122 
COMPS,ioos:station:USF.COMPS:BGC:1,2011-04-03T23:24:00Z,26.4040,-81.8810,1017.14,1111122 
COMPS,ioos:station:USF.COMPS:BGC:1,2011-04-03T23:30:00Z,26.4040,-81.8810,1017.21,1111122 
COMPS,ioos:station:USF.COMPS:BGC:1,2011-04-03T23:36:00Z,26.4040,-81.8810,1017.17,1111122 
COMPS,ioos:station:USF.COMPS:BGC:1,2011-04-03T23:42:00Z,26.4040,-81.8810,1017.29,1111122 
COMPS,ioos:station:USF.COMPS:BGC:1,2011-04-03T23:48:00Z,26.4040,-81.8810,1017.5,1111122 
COMPS,ioos:station:USF.COMPS:BGC:1,2011-04-03T23:54:00Z,26.4040,-81.8810,1017.62,1111122 
COMPS,ioos:station:USF.COMPS:BGC:1,2011-04-04T02:00:00Z,26.4040,-81.8810,1019.0,1111122 
COMPS,ioos:station:USF.COMPS:BGC:1,2011-04-04T02:06:00Z,26.4040,-81.8810,1019.12,1111122 
COMPS,ioos:station:USF.COMPS:BGC:1,2011-04-04T02:12:00Z,26.4040,-81.8810,1019.21,1111122 
COMPS,ioos:station:USF.COMPS:BGC:1,2011-04-04T02:18:00Z,26.4040,-81.8810,1019.22,1111122 
COMPS,ioos:station:USF.COMPS:BGC:1,2011-04-04T02:24:00Z,26.4040,-81.8810,1019.24,1111122 
COMPS,ioos:station:USF.COMPS:BGC:1,2011-04-04T02:30:00Z,26.4040,-81.8810,1019.34,1111122 
COMPS,ioos:station:USF.COMPS:BGC:1,2011-04-04T02:36:00Z,26.4040,-81.8810,1019.34,1111122 
COMPS,ioos:station:USF.COMPS:BGC:1,2011-04-04T02:42:00Z,26.4040,-81.8810,1019.33,1111122 
COMPS,ioos:station:USF.COMPS:BGC:1,2011-04-04T02:48:00Z,26.4040,-81.8810,1019.34,1111122 
COMPS,ioos:station:USF.COMPS:BGC:1,2011-04-04T02:54:00Z,26.4040,-81.8810,1019.37,1111122 
COMPS,ioos:station:USF.COMPS:BGC:1,2011-04-04T05:00:00Z,26.4040,-81.8810,1019.2,1111122 
COMPS,ioos:station:USF.COMPS:BGC:1,2011-04-04T05:06:00Z,26.4040,-81.8810,1019.14,1111122 
COMPS,ioos:station:USF.COMPS:BGC:1,2011-04-04T05:12:00Z,26.4040,-81.8810,1019.05,1111122 
COMPS,ioos:station:USF.COMPS:BGC:1,2011-04-04T05:18:00Z,26.4040,-81.8810,1018.96,1111122 
COMPS,ioos:station:USF.COMPS:BGC:1,2011-04-04T05:24:00Z,26.4040,-81.8810,1018.92,1111122 
COMPS,ioos:station:USF.COMPS:BGC:1,2011-04-04T05:30:00Z,26.4040,-81.8810,1018.84,1111122 